Погода в Бердичеве

Украина / Житомирская область     49°53′32″N   28°35′26″E
темп.,
°C
ветер,
м/с
пор.,
м/с
влажн.,
%
обл.,
%
осадки,
мм/ч
давл.,
гПа
погр.,
м
8 мая, сб
сб800:00+10юз3494100 0.4 1007103
03:00+9зсз4895100 1.8 1007262
06:00+8зсз61196100 0.1 1007578
09:00+6сз51193100 2.1 1011772
12:00+7зсз81187100 0.9 10131144
15:00+5зсз7108693 1.4 1015901
18:00+7сз711709 0.1 10161256
21:00+4зсз49855 0.1 1019178
9 мая, вс
вс900:00+2зсз35935 0.0 102192
03:00+1зсз36940 0.0 102299
06:00+1з37940 0.0 1024125
09:00+7зсз46725 0.0 1025597
12:00+11зсз56515 0.0 10251715
15:00+13зсз45425 0.0 10252069
18:00+13сз234310 0.0 10251923
21:00+8вюв22595 0.0 102610
10 мая, пн
пн1000:00+6ююв34665 0.0 102751
03:00+5ююв35703 0.0 102873
06:00+5ююв34735 0.0 102862
09:00+11юв46605 0.0 1028406
12:00+15юв56495 0.0 10271420
15:00+16юв55462 0.0 10261556
18:00+16юв45550 0.0 10251454
21:00+10вюв410750 0.0 1026153
11 мая, вт
вт1100:00+7юв48791 0.0 1027137
03:00+6юв37781 0.0 1026107
06:00+5вюв35780 0.0 102675
09:00+12в45610 0.0 1025437
12:00+16в45460 0.0 10231047
15:00+17в44470 0.0 10221179
18:00+17в45574 0.0 10201056
21:00+12всв4107939 0.0 1020180
12 мая, ср
ср1200:00+10в410962 0.0 1019272
03:00+8в399712 0.0 1019244
06:00+6в36955 0.0 1018118
09:00+11в466872 0.0 1016690
12:00+14в675794 0.0 10141638
15:00+13в5760100 0.3 10131605
18:00+13в566397 0.1 10131398
21:00+8в499014 0.3 1012213